Time,TemperatureF,DewpointF,PressureIn,WindDirection,WindDirectionDegrees,WindSpeedMPH,WindSpeedGustMPH,Humidity,HourlyPrecipIn,Conditions,Clouds,dailyrainin,SoftwareType,DateUTC
2013-09-25 00:02:00,43.9,40.6,29.77,NW,315,0.0,0.0,88,0.00,,,0.00,WUHU21623XXSP,2013-09-25 05:02:00,
2013-09-25 00:07:00,43.5,40.2,29.78,NW,315,0.0,0.0,88,0.00,,,0.00,WUHU21623XXSP,2013-09-25 05:07:00,
2013-09-25 00:12:00,43.5,40.2,29.77,NW,315,0.0,0.0,88,0.00,,,0.00,WUHU21623XXSP,2013-09-25 05:12:00,
2013-09-25 00:17:00,43.5,40.2,29.78,West,270,0.0,0.0,88,0.00,,,0.00,WUHU21623XXSP,2013-09-25 05:17:00,
2013-09-25 00:19:00,43.5,40.2,29.78,West,270,0.0,0.0,88,0.00,,,0.00,WUHU21623XXSP,2013-09-25 05:19:00,
2013-09-25 00:59:00,43.7,40.6,29.77,WNW,293,0.0,0.0,89,0.00,,,0.00,WUHU21623XXSP,2013-09-25 05:59:00,
2013-09-25 01:59:00,44.2,41.1,29.78,WNW,293,0.0,0.0,89,0.00,,,0.00,WUHU21623XXSP,2013-09-25 06:59:00,
2013-09-25 02:59:00,43.5,40.4,29.77,WNW,293,0.0,0.0,89,0.00,,,0.00,WUHU21623XXSP,2013-09-25 07:59:00,
2013-09-25 03:59:00,43.5,40.7,29.77,WNW,293,0.0,0.0,90,0.00,,,0.00,WUHU21623XXSP,2013-09-25 08:59:00,
2013-09-25 04:59:00,43.3,40.5,29.78,WNW,293,0.0,0.0,90,0.00,,,0.00,WUHU21623XXSP,2013-09-25 09:59:00,
2013-09-25 05:59:00,43.3,40.8,29.78,NW,315,0.0,0.0,91,0.00,,,0.00,WUHU21623XXSP,2013-09-25 10:59:00,
2013-09-25 06:59:00,43.2,40.7,29.78,WNW,293,0.0,0.0,91,0.00,,,0.00,WUHU21623XXSP,2013-09-25 11:59:00,
2013-09-25 07:33:00,44.2,41.8,29.79,NW,315,0.0,0.0,91,0.00,,,0.00,WUHU21623XXSP,2013-09-25 12:33:00,
2013-09-25 07:38:00,44.6,42.2,29.79,NW,315,0.0,0.0,91,0.00,,,0.00,WUHU21623XXSP,2013-09-25 12:38:00,
2013-09-25 07:43:00,45.5,43.1,29.80,NW,315,0.0,0.0,91,0.00,,,0.00,WUHU21623XXSP,2013-09-25 12:43:00,
2013-09-25 07:48:00,45.9,43.4,29.80,NW,315,0.0,0.0,91,0.00,,,0.00,WUHU21623XXSP,2013-09-25 12:48:00,
2013-09-25 07:53:00,46.6,43.8,29.80,NW,315,0.0,0.0,91,0.00,,,0.00,WUHU21623XXSP,2013-09-25 12:53:00,
2013-09-25 07:58:00,47.3,44.9,29.80,NW,315,0.0,0.0,91,0.00,,,0.00,WUHU21623XXSP,2013-09-25 12:58:00,
2013-09-25 08:03:00,48.0,45.9,29.80,NW,315,0.0,0.0,92,0.00,,,0.00,WUHU21623XXSP,2013-09-25 13:03:00,
2013-09-25 08:08:00,48.7,46.5,29.80,NW,315,0.0,0.0,92,0.00,,,0.00,WUHU21623XXSP,2013-09-25 13:08:00,
2013-09-25 08:59:00,63.1,57.6,29.80,ENE,68,0.0,0.0,82,0.00,,,0.00,WUHU21623XXSP,2013-09-25 13:59:00,
2013-09-25 09:59:00,63.1,56.2,29.80,ESE,113,3.6,3.6,78,0.00,,,0.00,WUHU21623XXSP,2013-09-25 14:59:00,
2013-09-25 10:59:00,63.7,55.4,29.81,ENE,68,0.0,0.0,74,0.00,,,0.00,WUHU21623XXSP,2013-09-25 15:59:00,
2013-09-25 11:59:00,66.2,54.7,29.80,ESE,113,2.9,2.9,66,0.00,,,0.00,WUHU21623XXSP,2013-09-25 16:59:00,
2013-09-25 12:59:00,67.3,55.3,29.79,ESE,113,6.9,6.9,65,0.00,,,0.00,WUHU21623XXSP,2013-09-25 17:59:00,
2013-09-25 13:59:00,65.7,53.4,29.78,NNW,338,3.4,3.4,64,0.00,,,0.00,WUHU21623XXSP,2013-09-25 18:59:00,
2013-09-25 14:59:00,65.8,54.3,29.78,ENE,68,4.5,4.5,66,0.00,,,0.00,WUHU21623XXSP,2013-09-25 19:59:00,
2013-09-25 15:45:00,65.3,53.2,29.78,NNE,22,3.1,3.1,65,0.00,,,0.00,WUHU21623XXSP,2013-09-25 20:45:00,
2013-09-25 15:50:00,65.5,53.4,29.78,NW,315,8.5,8.5,65,0.00,,,0.00,WUHU21623XXSP,2013-09-25 20:50:00,
2013-09-25 15:55:00,65.1,53.0,29.78,WNW,292,0.0,8.5,65,0.00,,,0.00,WUHU21623XXSP,2013-09-25 20:55:00,
2013-09-25 16:00:00,65.1,53.0,29.78,SE,135,3.6,3.8,65,0.00,,,0.00,WUHU21623XXSP,2013-09-25 21:00:00,
2013-09-25 16:05:00,64.9,52.8,29.78,East,90,5.4,5.4,65,0.00,,,0.00,WUHU21623XXSP,2013-09-25 21:05:00,
2013-09-25 16:10:00,64.6,52.9,29.77,SE,135,0.0,5.4,66,0.00,,,0.00,WUHU21623XXSP,2013-09-25 21:10:00,
2013-09-25 16:15:00,64.6,52.9,29.78,North,0,0.0,0.0,66,0.00,,,0.00,WUHU21623XXSP,2013-09-25 21:15:00,
2013-09-25 16:20:00,64.6,52.9,29.78,East,90,2.0,5.1,66,0.00,,,0.00,WUHU21623XXSP,2013-09-25 21:20:00,
2013-09-25 16:26:00,64.6,52.5,29.77,WSW,247,0.0,5.1,65,0.00,,,0.00,WUHU21623XXSP,2013-09-25 21:26:00,
2013-09-25 16:31:00,64.2,52.6,29.77,NNW,337,0.0,5.6,66,0.00,,,0.00,WUHU21623XXSP,2013-09-25 21:31:00,
2013-09-25 16:36:00,64.2,52.6,29.77,SSE,157,0.0,5.6,66,0.00,,,0.00,WUHU21623XXSP,2013-09-25 21:36:00,
2013-09-25 16:41:00,64.2,53.0,29.77,ESE,112,0.0,3.4,67,0.00,,,0.00,WUHU21623XXSP,2013-09-25 21:41:00,
2013-09-25 16:46:00,64.2,53.0,29.77,ESE,112,0.0,2.2,67,0.00,,,0.00,WUHU21623XXSP,2013-09-25 21:46:00,
2013-09-25 16:51:00,64.0,52.8,29.77,ESE,112,0.0,2.5,67,0.00,,,0.00,WUHU21623XXSP,2013-09-25 21:51:00,
2013-09-25 16:56:00,64.0,52.8,29.77,NW,315,2.2,4.0,67,0.00,,,0.00,WUHU21623XXSP,2013-09-25 21:56:00,
2013-09-25 17:01:00,63.9,52.7,29.77,SE,135,5.8,5.8,67,0.00,,,0.00,WUHU21623XXSP,2013-09-25 22:01:00,
2013-09-25 17:06:00,63.7,52.5,29.77,SE,135,3.1,5.8,67,0.00,,,0.00,WUHU21623XXSP,2013-09-25 22:06:00,
2013-09-25 17:11:00,63.7,52.5,29.78,SE,135,0.0,5.8,67,0.00,,,0.00,WUHU21623XXSP,2013-09-25 22:11:00,
2013-09-25 17:16:00,63.3,52.1,29.77,NNW,337,4.3,5.1,67,0.00,,,0.00,WUHU21623XXSP,2013-09-25 22:16:00,
2013-09-25 17:21:00,63.1,51.5,29.77,East,90,0.0,6.5,66,0.00,,,0.00,WUHU21623XXSP,2013-09-25 22:21:00,
2013-09-25 17:26:00,63.0,51.8,29.77,WNW,292,0.0,6.5,67,0.00,,,0.00,WUHU21623XXSP,2013-09-25 22:26:00,
2013-09-25 17:31:00,62.8,51.6,29.78,ESE,112,4.0,4.0,67,0.00,,,0.00,WUHU21623XXSP,2013-09-25 22:31:00,
2013-09-25 17:36:00,62.4,51.3,29.78,ESE,112,0.0,4.0,67,0.00,,,0.00,WUHU21623XXSP,2013-09-25 22:36:00,
2013-09-25 17:41:00,62.4,51.3,29.78,ESE,112,0.0,2.7,67,0.00,,,0.00,WUHU21623XXSP,2013-09-25 22:41:00,
2013-09-25 17:46:00,62.2,51.5,29.78,ENE,67,0.0,3.6,68,0.00,,,0.00,WUHU21623XXSP,2013-09-25 22:46:00,
2013-09-25 17:51:00,61.9,51.2,29.78,SE,135,3.8,3.8,68,0.00,,,0.00,WUHU21623XXSP,2013-09-25 22:51:00,
2013-09-25 17:58:00,61.9,51.2,29.78,SE,135,3.8,3.8,68,0.00,,,0.00,WUHU21623XXSP,2013-09-25 22:58:00,
2013-09-25 18:03:00,61.5,51.3,29.78,ESE,112,0.0,1.6,69,0.00,,,0.00,WUHU21623XXSP,2013-09-25 23:03:00,
2013-09-25 18:08:00,61.0,51.2,29.78,East,90,0.0,4.3,70,0.00,,,0.00,WUHU21623XXSP,2013-09-25 23:08:00,
2013-09-25 18:13:00,61.0,51.2,29.77,East,90,0.0,4.5,70,0.00,,,0.00,WUHU21623XXSP,2013-09-25 23:13:00,
2013-09-25 18:18:00,60.6,50.9,29.78,ESE,112,0.0,4.5,70,0.00,,,0.00,WUHU21623XXSP,2013-09-25 23:18:00,
2013-09-25 18:23:00,60.4,51.1,29.78,ENE,67,0.0,1.8,71,0.00,,,0.00,WUHU21623XXSP,2013-09-25 23:23:00,
2013-09-25 18:28:00,60.1,50.7,29.78,NNE,22,0.0,1.8,72,0.00,,,0.00,WUHU21623XXSP,2013-09-25 23:28:00,
2013-09-25 18:33:00,59.5,50.5,29.78,ESE,112,0.0,0.0,72,0.00,,,0.00,WUHU21623XXSP,2013-09-25 23:33:00,
2013-09-25 18:38:00,59.2,50.5,29.78,ESE,112,0.0,0.0,73,0.00,,,0.00,WUHU21623XXSP,2013-09-25 23:38:00,
2013-09-25 18:43:00,58.8,50.2,29.78,East,90,0.0,0.0,73,0.00,,,0.00,WUHU21623XXSP,2013-09-25 23:43:00,
2013-09-25 18:48:00,58.1,49.8,29.77,East,90,0.0,0.0,74,0.00,,,0.00,WUHU21623XXSP,2013-09-25 23:48:00,
2013-09-25 18:53:00,57.7,49.6,29.78,East,90,0.0,0.0,74,0.00,,,0.00,WUHU21623XXSP,2013-09-25 23:53:00,
2013-09-25 18:58:00,57.0,49.1,29.78,East,90,0.0,0.0,75,0.00,,,0.00,WUHU21623XXSP,2013-09-25 23:58:00,
2013-09-25 19:04:00,56.3,49.1,29.78,East,90,0.0,0.0,77,0.00,,,0.00,WUHU21623XXSP,2013-09-26 00:04:00,
2013-09-25 19:09:00,55.8,48.9,29.78,East,90,0.0,0.0,78,0.00,,,0.00,WUHU21623XXSP,2013-09-26 00:09:00,
2013-09-25 19:14:00,55.2,48.4,29.78,East,90,0.0,0.0,78,0.00,,,0.00,WUHU21623XXSP,2013-09-26 00:14:00,
2013-09-25 19:19:00,54.3,48.1,29.79,East,90,0.0,0.0,80,0.00,,,0.00,WUHU21623XXSP,2013-09-26 00:19:00,
2013-09-25 19:24:00,54.0,48.0,29.78,East,90,0.0,0.0,80,0.00,,,0.00,WUHU21623XXSP,2013-09-26 00:24:00,
2013-09-25 19:29:00,53.8,47.8,29.78,East,90,0.0,0.0,80,0.00,,,0.00,WUHU21623XXSP,2013-09-26 00:29:00,
2013-09-25 19:34:00,53.2,47.3,29.78,East,90,0.0,0.0,80,0.00,,,0.00,WUHU21623XXSP,2013-09-26 00:34:00,
2013-09-25 19:39:00,52.5,46.9,29.78,East,90,0.0,0.0,80,0.00,,,0.00,WUHU21623XXSP,2013-09-26 00:39:00,
2013-09-25 19:44:00,52.3,46.7,29.78,East,90,0.0,0.0,81,0.00,,,0.00,WUHU21623XXSP,2013-09-26 00:44:00,
2013-09-25 19:49:00,51.6,46.0,29.78,East,90,0.0,0.0,81,0.00,,,0.00,WUHU21623XXSP,2013-09-26 00:49:00,
2013-09-25 19:54:00,51.4,46.1,29.78,East,90,0.0,0.0,82,0.00,,,0.00,WUHU21623XXSP,2013-09-26 00:54:00,
2013-09-25 19:59:00,51.1,45.8,29.78,East,90,0.0,0.0,82,0.00,,,0.00,WUHU21623XXSP,2013-09-26 00:59:00,
2013-09-25 20:04:00,50.7,45.7,29.79,East,90,0.0,0.0,83,0.00,,,0.00,WUHU21623XXSP,2013-09-26 01:04:00,
2013-09-25 20:09:00,50.5,45.7,29.79,East,90,0.0,0.0,84,0.00,,,0.00,WUHU21623XXSP,2013-09-26 01:09:00,
2013-09-25 20:14:00,50.4,45.6,29.79,North,0,0.0,0.0,84,0.00,,,0.00,WUHU21623XXSP,2013-09-26 01:14:00,
2013-09-25 20:19:00,50.2,45.8,29.79,North,0,0.0,0.0,85,0.00,,,0.00,WUHU21623XXSP,2013-09-26 01:19:00,
2013-09-25 20:24:00,50.0,45.6,29.79,North,0,0.0,0.0,85,0.00,,,0.00,WUHU21623XXSP,2013-09-26 01:24:00,
2013-09-25 20:29:00,49.8,45.4,29.79,North,0,0.0,0.0,85,0.00,,,0.00,WUHU21623XXSP,2013-09-26 01:29:00,
2013-09-25 20:34:00,49.6,45.2,29.79,North,0,0.0,0.0,85,0.00,,,0.00,WUHU21623XXSP,2013-09-26 01:34:00,
2013-09-25 20:39:00,49.3,45.2,29.79,North,0,0.0,0.0,86,0.00,,,0.00,WUHU21623XXSP,2013-09-26 01:39:00,
2013-09-25 20:44:00,49.1,45.0,29.79,North,0,0.0,0.0,86,0.00,,,0.00,WUHU21623XXSP,2013-09-26 01:44:00,
2013-09-25 20:49:00,48.9,44.9,29.79,North,0,0.0,0.0,86,0.00,,,0.00,WUHU21623XXSP,2013-09-26 01:49:00,
2013-09-25 20:54:00,48.7,44.7,29.79,North,0,0.0,0.0,86,0.00,,,0.00,WUHU21623XXSP,2013-09-26 01:54:00,
2013-09-25 20:59:00,48.7,44.7,29.79,North,0,0.0,0.0,86,0.00,,,0.00,WUHU21623XXSP,2013-09-26 01:59:00,
2013-09-25 21:31:00,47.5,43.5,29.79,NW,315,0.0,0.0,86,0.00,,,0.00,WUHU21623XXSP,2013-09-26 02:31:00,
2013-09-25 21:37:00,47.1,43.2,29.79,NW,315,0.0,0.0,86,0.00,,,0.00,WUHU21623XXSP,2013-09-26 02:37:00,
2013-09-25 21:42:00,46.9,43.0,29.79,NW,315,0.0,0.0,86,0.00,,,0.00,WUHU21623XXSP,2013-09-26 02:42:00,
2013-09-25 21:47:00,46.9,43.3,29.79,NW,315,0.0,0.0,87,0.00,,,0.00,WUHU21623XXSP,2013-09-26 02:47:00,
2013-09-25 21:52:00,46.8,43.1,29.79,NW,315,0.0,0.0,87,0.00,,,0.00,WUHU21623XXSP,2013-09-26 02:52:00,
2013-09-25 21:57:00,46.8,43.1,29.79,NW,315,0.0,0.0,87,0.00,,,0.00,WUHU21623XXSP,2013-09-26 02:57:00,
2013-09-25 22:02:00,46.6,42.9,29.79,NW,315,0.0,0.0,87,0.00,,,0.00,WUHU21623XXSP,2013-09-26 03:02:00,
2013-09-25 22:07:00,46.6,42.9,29.79,NW,315,0.0,0.0,87,0.00,,,0.00,WUHU21623XXSP,2013-09-26 03:07:00,
2013-09-25 22:12:00,46.2,42.6,29.79,NW,315,0.0,0.0,87,0.00,,,0.00,WUHU21623XXSP,2013-09-26 03:12:00,
2013-09-25 22:17:00,46.0,42.4,29.79,NW,315,0.0,0.0,87,0.00,,,0.00,WUHU21623XXSP,2013-09-26 03:17:00,
2013-09-25 22:22:00,46.0,42.4,29.79,NW,315,0.0,0.0,87,0.00,,,0.00,WUHU21623XXSP,2013-09-26 03:22:00,
2013-09-25 22:27:00,45.9,42.4,29.79,NW,315,0.0,0.0,87,0.00,,,0.00,WUHU21623XXSP,2013-09-26 03:27:00,
2013-09-25 22:32:00,45.7,42.1,29.78,NW,315,0.0,0.0,87,0.00,,,0.00,WUHU21623XXSP,2013-09-26 03:32:00,
2013-09-25 22:37:00,45.7,42.1,29.78,NW,315,0.0,0.0,87,0.00,,,0.00,WUHU21623XXSP,2013-09-26 03:37:00,
2013-09-25 22:42:00,45.5,41.9,29.79,NW,315,0.0,0.0,87,0.00,,,0.00,WUHU21623XXSP,2013-09-26 03:42:00,
2013-09-25 22:47:00,45.5,41.9,29.79,NW,315,0.0,0.0,87,0.00,,,0.00,WUHU21623XXSP,2013-09-26 03:47:00,
2013-09-25 22:52:00,45.5,42.2,29.79,NW,315,0.0,0.0,88,0.00,,,0.00,WUHU21623XXSP,2013-09-26 03:52:00,
2013-09-25 22:57:00,45.5,42.2,29.79,NW,315,0.0,0.0,88,0.00,,,0.00,WUHU21623XXSP,2013-09-26 03:57:00,
2013-09-25 23:01:00,45.3,42.0,29.79,NW,315,0.0,0.0,88,0.00,,,0.00,WUHU21623XXSP,2013-09-26 04:01:00,
2013-09-25 23:03:00,45.3,42.0,29.79,NW,315,0.0,0.0,88,0.00,,,0.00,WUHU21623XXSP,2013-09-26 04:03:00,
2013-09-25 23:08:00,45.3,42.0,29.79,NW,315,0.0,0.0,88,0.00,,,0.00,WUHU21623XXSP,2013-09-26 04:08:00,
2013-09-25 23:13:00,45.3,42.0,29.79,NW,315,0.0,0.0,88,0.00,,,0.00,WUHU21623XXSP,2013-09-26 04:13:00,
2013-09-25 23:18:00,45.3,42.0,29.79,NW,315,0.0,0.0,88,0.00,,,0.00,WUHU21623XXSP,2013-09-26 04:18:00,
2013-09-25 23:23:00,45.3,42.0,29.79,NW,315,0.0,0.0,88,0.00,,,0.00,WUHU21623XXSP,2013-09-26 04:23:00,
2013-09-25 23:28:00,45.1,41.8,29.79,NW,315,0.0,0.0,88,0.00,,,0.00,WUHU21623XXSP,2013-09-26 04:28:00,
2013-09-25 23:33:00,45.1,41.8,29.80,NW,315,0.0,0.0,88,0.00,,,0.00,WUHU21623XXSP,2013-09-26 04:33:00,
2013-09-25 23:38:00,45.0,41.6,29.79,NW,315,0.0,0.0,88,0.00,,,0.00,WUHU21623XXSP,2013-09-26 04:38:00,
2013-09-25 23:43:00,45.0,42.0,29.79,NW,315,0.0,0.0,89,0.00,,,0.00,WUHU21623XXSP,2013-09-26 04:43:00,
2013-09-25 23:48:00,45.0,42.0,29.79,NW,315,0.0,0.0,89,0.00,,,0.00,WUHU21623XXSP,2013-09-26 04:48:00,
2013-09-25 23:53:00,45.0,42.0,29.79,NW,315,0.0,0.0,89,0.00,,,0.00,WUHU21623XXSP,2013-09-26 04:53:00,
2013-09-25 23:58:00,45.0,42.0,29.79,NW,315,0.0,0.0,89,0.00,,,0.00,WUHU21623XXSP,2013-09-26 04:58:00,